Weather History for College Station, TX

Change the Weather History Date:

Saturday, September 29, 2012

  Actual Average Record
Temperature  
Mean Temperature 77 °F 76 °F  
Max Temperature 80 °F 87 °F 100 °F (2011)
Min Temperature 73 °F 65 °F 46 °F (1967)
Degree Days  
Heating Degree Days 0 0  
Month to date heating degree days 0 0  
Since 1 July heating degree days 0 0  
Cooling Degree Days 12 11  
Month to date cooling degree days 484 439  
Year to date cooling degree days 3256 2785  
Growing Degree Days 26 (Base 50)    
Moisture  
Dew Point 73 °F    
Average Humidity 92    
Maximum Humidity 100    
Minimum Humidity 81    
Precipitation  
Precipitation 2.63 in 0.10 in 2.63 in (2012)
Month to date precipitation 3.16 3.07  
Year to date precipitation 34.69 28.59  
Sea Level Pressure  
Sea Level Pressure 29.83 in    
Wind  
Wind Speed 8 mph (SE)    
Max Wind Speed 18 mph    
Max Gust Speed 22 mph    
Visibility 8 miles    
Events Rain    
T = Trace of Precipitation, MM = Missing Value Source: NWS Daily Summary

Daily Weather History Graph

Daily Weather History Graph

Search for Another Location

Airport:

Trip Planner

Search our weather history database for the weather conditions in past years. The results will help you decide how hot, cold, wet, or windy it might be!

Date:

Astronomy

Sep. 29, 2012 Rise Set
Actual Time 7:18 AM CDT 7:12 PM CDT
Civil Twilight 6:54 AM CDT 7:36 PM CDT
Nautical Twilight 6:26 AM CDT 8:04 PM CDT
Astronomical Twilight 5:58 AM CDT 8:32 PM CDT
Moon 6:49 PM CDT (9/29) 6:48 AM CDT (9/29)
Length of Visible Light 12h 42m
Length of Day
11h 54m
Full, 100% of the Moon is Illuminated
Sep 29
Full
Sep 29
Full
Oct 8
Last Quarter
Oct 15
New
Oct 21
First Quarter

Hourly Weather History & Observations

Time (CDT) Temp. Heat Index Dew Point Humidity Pressure Visibility Wind Dir Wind Speed Gust Speed Precip Events Conditions
12:53 AM 77.0 °F - 73.9 °F 90% 29.93 in 10.0 mi Calm Calm - 0.00 in Rain Light Rain
1:53 AM 77.0 °F - 73.0 °F 88% 29.92 in 10.0 mi Calm Calm - 0.00 in Rain Light Rain
2:53 AM 75.9 °F - 73.0 °F 91% 29.91 in 10.0 mi Calm Calm - 0.01 in Rain Light Rain
3:46 AM 75.2 °F - 73.4 °F 94% 29.92 in 6.0 mi ESE 3.5 mph - N/A Rain Light Rain
3:53 AM 75.9 °F - 73.9 °F 94% 29.90 in 9.0 mi Calm Calm - 0.06 in Rain Light Rain
4:09 AM 75.2 °F - 73.4 °F 94% 29.91 in 9.0 mi ENE 3.5 mph - 0.00 in Rain Light Rain
4:53 AM 75.0 °F - 73.0 °F 94% 29.88 in 9.0 mi Calm Calm - 0.01 in Rain Light Rain
5:00 AM 75.2 °F - 73.4 °F 94% 29.89 in 9.0 mi ENE 3.5 mph - 0.00 in Rain Light Rain
5:09 AM 73.4 °F - 73.4 °F 100% 29.89 in 10.0 mi ENE 4.6 mph - 0.00 in Rain Light Rain
5:16 AM 73.4 °F - 71.6 °F 94% 29.89 in 10.0 mi ENE 3.5 mph - 0.00 in Rain Light Rain
5:30 AM 73.4 °F - 71.6 °F 94% 29.89 in 10.0 mi ENE 4.6 mph - 0.00 in   Mostly Cloudy
5:53 AM 73.9 °F - 72.0 °F 93% 29.87 in 10.0 mi ENE 4.6 mph - 0.00 in Rain Light Rain
6:14 AM 73.4 °F - 71.6 °F 94% 29.90 in 3.0 mi SSE 12.7 mph - 0.11 in Rain Rain
6:16 AM 73.4 °F - 71.6 °F 94% 29.90 in 1.8 mi ESE 9.2 mph - 0.24 in Rain Heavy Rain
6:22 AM 73.4 °F - 71.6 °F 94% 29.89 in 1.0 mi East 4.6 mph - 0.42 in Rain Heavy Rain
6:33 AM 73.4 °F - 71.6 °F 94% 29.89 in 2.0 mi ENE 5.8 mph - 0.55 in Rain Heavy Rain
6:44 AM 73.4 °F - 71.6 °F 94% 29.89 in 4.0 mi East 5.8 mph - 0.59 in Rain Heavy Rain
6:53 AM 73.9 °F - 72.0 °F 93% 29.88 in 5.0 mi East 4.6 mph - 0.62 in Rain Rain
7:14 AM 73.4 °F - 71.6 °F 94% 29.89 in 4.0 mi NNE 3.5 mph - 0.17 in Rain Rain
7:24 AM 73.4 °F - 71.6 °F 94% 29.89 in 3.0 mi Calm Calm - 0.23 in Rain Heavy Rain
7:32 AM 73.4 °F - 71.6 °F 94% 29.89 in 4.0 mi Calm Calm - 0.27 in Rain Heavy Rain
7:53 AM 73.9 °F - 73.0 °F 97% 29.88 in 1.5 mi SW 9.2 mph - 0.71 in Rain Heavy Rain
8:00 AM 73.4 °F - 73.4 °F 100% 29.89 in 2.0 mi SSW 4.6 mph - 0.06 in Rain Heavy Rain
8:03 AM 73.4 °F - 71.6 °F 94% 29.89 in 3.0 mi SSW 9.2 mph 17.3 mph 0.07 in Rain Rain
8:15 AM 73.4 °F - 71.6 °F 94% 29.89 in 9.0 mi SSW 6.9 mph - 0.09 in Rain Rain
8:53 AM 75.0 °F - 73.0 °F 94% 29.88 in 10.0 mi SSE 9.2 mph - 0.12 in Rain Light Rain
9:33 AM 75.2 °F - 73.4 °F 94% 29.90 in 7.0 mi SSE 6.9 mph - N/A Rain Light Rain
9:53 AM 75.0 °F - 73.0 °F 94% 29.89 in 7.0 mi SSE 9.2 mph - 0.04 in Rain Light Rain
10:53 AM 75.9 °F - 73.0 °F 91% 29.89 in 10.0 mi SSE 12.7 mph - 0.01 in Rain Light Rain
11:12 AM 75.2 °F - 73.4 °F 94% 29.89 in 10.0 mi SSE 9.2 mph - 0.00 in   Overcast
11:24 AM 75.2 °F - 73.4 °F 94% 29.88 in 10.0 mi SSE 9.2 mph - 0.00 in   Overcast
11:53 AM 75.9 °F - 73.9 °F 94% 29.86 in 10.0 mi SE 6.9 mph - 0.00 in   Overcast
12:01 PM 75.2 °F - 73.4 °F 94% 29.87 in 10.0 mi SE 9.2 mph - 0.00 in Rain Light Rain
12:17 PM 75.2 °F - 73.4 °F 94% 29.87 in 10.0 mi SSE 8.1 mph - 0.00 in Rain Light Rain
12:26 PM 75.2 °F - 73.4 °F 94% 29.86 in 10.0 mi SE 6.9 mph - 0.00 in   Overcast
12:46 PM 78.8 °F - 73.4 °F 83% 29.85 in 10.0 mi SE 6.9 mph - 0.00 in Rain Light Rain
12:53 PM 78.1 °F - 73.9 °F 87% 29.83 in 10.0 mi SSE 9.2 mph - 0.00 in   Overcast
1:28 PM 75.2 °F - 73.4 °F 94% 29.83 in 2.0 mi South 9.2 mph - 0.09 in Rain Rain
1:33 PM 75.2 °F - 73.4 °F 94% 29.83 in 3.0 mi South 8.1 mph - 0.10 in Rain Light Rain
1:53 PM 78.1 °F - 75.0 °F 90% 29.81 in 10.0 mi South 9.2 mph - 0.10 in   Overcast
2:21 PM 78.8 °F - 75.2 °F 89% 29.79 in 10.0 mi SSE 10.4 mph - N/A   Overcast
2:32 PM 78.8 °F - 73.4 °F 83% 29.78 in 10.0 mi South 10.4 mph - N/A   Overcast
2:53 PM 80.1 °F 84.5 °F 73.9 °F 81% 29.76 in 10.0 mi SSE 13.8 mph - N/A   Mostly Cloudy
3:53 PM 79.0 °F - 73.9 °F 84% 29.74 in 10.0 mi SSE 11.5 mph - 0.00 in Rain Light Rain
4:43 PM 78.8 °F - 73.4 °F 83% 29.74 in 10.0 mi SSE 10.4 mph - 0.00 in Rain Light Rain
4:53 PM 78.1 °F - 73.9 °F 87% 29.72 in 10.0 mi SSE 6.9 mph - 0.00 in   Overcast
5:30 PM 78.8 °F - 73.4 °F 83% 29.73 in 10.0 mi SE 11.5 mph - 0.00 in   Mostly Cloudy
5:53 PM 78.8 °F - 73.4 °F 83% 29.73 in 10.0 mi SE 10.4 mph - N/A   Overcast
6:43 PM 78.8 °F - 75.2 °F 89% 29.71 in 10.0 mi SE 6.9 mph - 0.00 in Rain Light Rain
6:53 PM 78.1 °F - 75.0 °F 90% 29.70 in 10.0 mi SE 9.2 mph - 0.00 in Rain Light Rain
7:23 PM 77.0 °F - 73.4 °F 89% 29.72 in 10.0 mi SE 8.1 mph - N/A   Overcast
7:53 PM 77.0 °F - 73.9 °F 90% 29.70 in 10.0 mi SSE 17.3 mph 20.7 mph 0.00 in   Overcast
8:28 PM 75.2 °F - 73.4 °F 94% 29.71 in 6.0 mi SSE 12.7 mph 21.9 mph 0.03 in Rain Light Rain
8:37 PM 75.2 °F - 73.4 °F 94% 29.71 in 10.0 mi SSE 11.5 mph - 0.03 in   Overcast
8:53 PM 75.9 °F - 73.9 °F 94% 29.70 in 10.0 mi SSE 11.5 mph - 0.03 in   Overcast
9:03 PM 75.2 °F - 73.4 °F 94% 29.71 in 10.0 mi SSE 10.4 mph - N/A   Overcast
9:53 PM 75.9 °F - 73.9 °F 94% 29.69 in 10.0 mi SSE 10.4 mph - N/A   Overcast
10:53 PM 75.9 °F - 73.9 °F 94% 29.68 in 10.0 mi SSE 6.9 mph - 0.00 in   Overcast
11:34 PM 73.4 °F - 71.6 °F 94% 29.71 in 1.8 mi North - - 0.26 in Rain Heavy Rain
11:43 PM 73.4 °F - 71.6 °F 94% 29.71 in 1.0 mi North - - 0.55 in Rain Heavy Rain
11:53 PM 73.0 °F - 72.0 °F 96% 29.69 in 1.2 mi North - - 0.79 in Rain Heavy Rain